Flag for U.S.A. Weather past 2 weeks in Youngstown, Ohio, U.S.A.

Now
60 °F

Partly cloudy.


Feels Like: 60 °F
Forecast: 59 / 83 °F
Wind: 5 mph from South

Location: Youngstown-Warren Regional Airport

Current Time: Jul 26, 2014 at 8:15:00 AM

Latest Report: Jul 26, 2014 at 6:51 AM


Visibility: 10 mi

Pressure: 29.98 "Hg

Humidity: 86%

Dew point: 56 °F

Location of YoungstownLocation

Historic Weather in Youngstown — Graph

°F

Youngstown temperature yesterday

Maximum temperature yesterday: 76 °F (at 3:51 PM)
Minimum temperature yesterday: 48 °F (at 6:51 AM)
Average temperature yesterday: 64 °F

Past Weeks' High & Low Weather Summary

 TemperatureHumidityPressure
High84 °F (Jul 21, 5:51 PM)100% (Jul 14, 5:51 AM)30.26 "Hg (Jul 14, 5:51 AM)
Low47 °F (Jul 18, 4:51 AM)36% (Jul 18, 1:51 PM)29.72 "Hg (Jul 15, 3:51 AM)
Average68 °F75%30.03 "Hg
* Reported Jul 11 6:51 AM — Jul 26 6:51 AM, Youngstown, Weather by CustomWeather, © 2014

Note: Actual official high and low records may vary slightly from our data, if they occured in-between our weather recording intervals... More about our weather records

Advertising

Youngstown weather history for previous 24 hours

 ConditionsComfort  
Time TempWeatherWind HumidityBarometerVisibility
6:51 AM
Jul 26
60 °FPartly cloudy.5 mph86%29.98 "Hg10 mi
5:51 AM60 °FMostly cloudy.6 mph86%29.98 "Hg10 mi
4:51 AM60 °FMostly cloudy.9 mph83%29.97 "Hg10 mi
3:51 AM60 °FOvercast.6 mph93%29.99 "Hg10 mi
2:51 AM61 °FLight rain. Fog.6 mph93%30.00 "Hg6 mi
1:51 AM62 °FRain. Fog.No wind93%30.02 "Hg4 mi
12:51 AM61 °FLight rain. Fog.No wind93%30.01 "Hg4 mi
11:51 PM
Jul 25
65 °FLight rain. Mostly cloudy.No wind73%30.00 "Hg10 mi
10:51 PM65 °FMostly cloudy.No wind70%30.01 "Hg10 mi
9:51 PM67 °FMostly cloudy.7 mph61%30.01 "Hg10 mi
8:51 PM65 °FBroken clouds.No wind68%30.00 "Hg10 mi
7:51 PM71 °FBroken clouds.3 mph53%30.00 "Hg10 mi
6:51 PM73 °FBroken clouds.6 mph48%30.00 "Hg10 mi
5:51 PM75 °FBroken clouds.7 mph43%30.01 "Hg10 mi
4:51 PM76 °FScattered clouds.7 mph37%30.02 "Hg10 mi
3:51 PM76 °FScattered clouds.No wind36%30.03 "Hg10 mi
2:51 PM75 °FScattered clouds.6 mph42%30.04 "Hg10 mi
1:51 PM75 °FScattered clouds.5 mph43%30.06 "Hg10 mi
12:51 PM72 °FScattered clouds.5 mph44%30.06 "Hg10 mi
11:51 AM70 °FScattered clouds.5 mph49%30.10 "Hg10 mi
10:51 AM67 °FScattered clouds.6 mph55%30.12 "Hg10 mi
9:51 AM66 °FScattered clouds.5 mph59%30.11 "Hg10 mi
8:51 AM63 °FPassing clouds.No wind73%30.11 "Hg10 mi
Weather by CustomWeather, © 2014

See weather overviewHow to use our weather pages